User: anonymous   Login
Location: Sawmill Trailhead
(33.5800°N, 116.4497°W)
Time: 09:02:25
(UTC-07:00)
Language:

Uosat F - Orbit

View from above orbital plane
View from above orbital plane
View from above satellite
View from above satellite

Ground track
Ground track

The orbit data is extracted from the following two-line orbital elements,

1 21575U 91050B   18141.69286827 -.00000000 +00000-0 +14374-4 0  9992
2 21575 098.7311 170.7513 0007623 021.5988 338.5520 14.40844622409820
Epoch (UTC): 21 May 2018 16:37:43
Eccentricity: 0.0007623
inclination: 98.7311°
perigee height: 750 km
apogee height: 761 km
right ascension of ascending node: 170.7513°
argument of perigee: 21.5988°
revolutions per day: 14.40844622
mean anomaly at epoch: 338.5520°
orbit number at epoch: 40982

The dashed part of the orbit path shows where the satellite is in the earth's shadow,  

DLR